Location: Austin
(30.3000°N, 97.7500°W)
Time: 04:11:03
(UTC-06:00)

YAOGAN 1 - Pass Details

Date: 20 November 2024
Orbit: 609 x 611 km, 97.8° (Epoch: 05 December)

Event Time Altitude Azimuth Distance (km) Brightness Sun altitude
Rises 18:19:29 0° 130° (SE) 2,860 5.6 -10.5°
Reaches altitude 10° 18:22:19 10° 109° (ESE) 1,960 4.6 -11.0°
Maximum altitude 18:25:01 17° 70° (ENE) 1,574 4.0 -11.6°
Drops below altitude 10° 18:27:43 10° 30° (NNE) 1,966 4.7 -12.2°
Sets 18:30:33 0° 10° (N) 2,873 5.7 -12.8°
